Temperature
16 17 17 17 17 17 17 17 16 16 16 16 16 16 16 16 16 16 16 16 16 16 16 16 16 16 16 16 16 16 16 16 16 16 16 16 16 16 16 15 15 15 16
16 17 17 17 17 17 17 17 16 16 16 16 16 16 16 16 16 16 16 16 16 16 16 16 16 16 16 16 16 16 16 16 16 16 16 16 16 16 16 15 15 15 15
16 16 17 17 17 16 16 16 16 16 16 16 16 16 16 16 16 16 16 16 16 16 16 16 16 16 16 16 16 16 16 16 16 15 15 15 15 16 16 15 15 15 15
16 16 16 16 16 16 16 16 16 16 16 16 16 16 16 16 16 16 16 16 16 16 16 16 16 16 16 16 16 16 16 16 16 15 15 15 15 15 15 15 15 15 15
15 16 16 16 16 16 16 16 16 16 16 16 16 16 16 16 16 16 16 16 16 16 16 16 16 16 16 16 16 16 16 16 15 15 15 14 15 15 15 15 15 15 15
15 15 16 16 16 16 16 16 16 16 16 16 16 16 16 16 16 16 16 16 16 16 16 16 16 16 16 16 16 16 16 16 15 15 14 14 14 15 15 15 15 15 15
15 15 15 15 15 16 16 16 16 16 16 16 16 16 16 16 16 16 16 15 15 15 15 16 16 16 16 16 16 16 16 15 15 15 14 14 14 15 15 15 15 15 15
14 15 15 15 15 15 15 15 15 15 15 15 15 15 15 15 15 15 15 15 15 15 15 15 15 16 16 15 15 15 15 15 15 15 14 14 14 15 15 15 15 15 15
14 14 14 15 15 15 15 15 15 15 15 15 15 15 15 15 15 15 15 15 15 15 15 15 15 15 15 15 15 15 15 15 15 15 14 14 14 15 15 15 15 15 15
14 14 14 14 14 14 14 14 14 15 15 15 15 15 15 15 15 15 15 15 15 15 15 15 15 15 15 15 15 15 15 15 15 14 14 14 14 14 15 15 15 15 15
13 13 14 14 14 14 14 14 14 14 14 14 14 14 14 14 14 15 15 15 15 15 15 15 15 15 15 15 15 15 15 15 14 14 14 14 14 14 14 15 15 15 15
13 13 13 13 13 14 14 14 14 14 14 14 14 14 14 14 14 14 14 14 14 14 14 14 15 15 15 15 15 15 15 15 14 14 14 14 14 14 14 14 14 15 14
13 13 13 13 13 13 13 13 13 13 13 13 13 13 13 13 13 13 13 13 14 14 14 14 14 14 14 14 14 14 14 14 14 14 14 14 14 14 14 14 14 14 14
12 12 13 13 13 13 13 13 12 12 12 12 12 13 13 13 13 13 13 13 13 13 13 13 13 13 13 14 14 14 14 14 14 14 14 14 14 14 14 14 14 14 14
12 12 12 12 12 12 12 12 12 12 12 12 12 12 12 12 12 12 12 12 12 12 12 13 13 13 13 13 13 13 13 13 14 14 14 14 14 14 14 14 14 14 14
12 12 12 12 12 12 12 11 11 11 11 11 11 11 11 11 11 12 12 12 12 12 12 12 12 12 12 13 13 13 13 13 13 13 13 13 14 14 14 14 14 14 14
11 11 11 11 11 11 11 11 11 11 11 11 11 11 11 11 11 11 11 11 11 11 11 11 12 12 12 12 12 12 13 13 13 13 13 13 13 13 13 13 13 13 13
11 11 11 11 11 11 11 11 11 11 10 10 10 10 11 10 10 10 11 11 11 11 11 11 11 11 11 11 12 12 12 12 12 12 12 13 13 13 13 13 13 13 13
10 10 11 11 11 11 11 10 10 10 10 10 10 10 10 10 10 10 10 10 10 10 10 10 10 10 11 11 11 11 11 11 12 12 12 12 12 12 12 12 13 13 13
10 10 10 10 10 10 10 10 10 10 10 10 10 10 10 10 9 9 9 9 9 9 10 10 10 10 10 10 10 10 11 11 11 11 11 11 11 11 11 12 12 12 12
10 10 10 10 10 10 10 10 10 10 9 9 9 9 9 9 9 9 9 9 9 9 9 9 9 9 9 9 9 10 10 10 10 10 10 10 11 11 11 11 11 11 11
9 9 9 9 9 9 9 9 9 9 9 9 8 9 9 9 9 9 8 9 8 8 8 9 9 9 9 9 8 8 9 9 10 10 10 10 10 10 10 10 10 11 11
9 9 9 9 9 9 9 9 9 9 8 8 8 8 8 8 8 8 8 8 8 8 8 8 8 8 8 8 8 8 8 8 9 9 9 10 10 10 10 10 10 10 10
9 9 9 9 9 9 9 8 8 8 8 8 8 7 8 7 7 7 7 7 8 8 8 7 7 7 7 7 8 7 7 7 7 8 8 9 9 9 9 9 9 9 9
8 8 8 8 8 8 8 8 8 8 7 7 7 7 7 7 7 7 7 7 7 7 7 7 7 7 7 7 7 7 7 7 7 7 7 8 8 8 8 9 8 8 8
8 8 8 8 8 8 8 8 7 7 7 7 7 7 6 6 6 6 6 6 6 6 6 6 6 6 6 6 6 6 6 6 6 6 6 6 7 7 8 8 8 8 8
Wind_Speed
9 12 11 10 9 9 10 9 8 8 7 6 6 6 5 5 5 5 5 5 5 5 5 5 5 5 6 6 6 7 7 8 8 9 9 10 9 9 8 8 8 10 11
10 14 12 10 10 9 9 9 9 8 7 6 6 5 5 5 4 3 4 4 4 4 4 4 5 4 5 5 5 6 6 6 6 6 8 8 8 7 8 9 9 9 10
10 13 12 10 9 9 9 8 8 7 7 6 6 5 4 4 3 3 3 2 2 2 3 3 4 3 4 4 5 5 4 4 3 4 5 6 8 7 7 7 8 9 8
10 12 11 10 9 9 8 7 7 6 5 5 5 4 4 3 3 2 2 1 1 2 3 3 3 3 3 4 4 4 3 3 3 4 3 6 8 7 6 6 6 7 7
10 12 11 10 9 8 7 6 6 5 4 4 3 3 2 2 2 2 1 1 1 1 2 2 2 3 3 4 4 4 3 4 5 6 3 3 8 8 7 5 5 5 5
9 11 11 10 8 7 6 5 4 3 3 2 2 2 1 1 1 1 1 1 0 1 2 3 3 3 4 4 5 5 5 6 7 7 5 4 7 9 7 6 5 4 4
8 10 10 9 7 6 5 4 3 2 2 1 0 0 0 1 1 1 1 1 1 1 2 3 4 5 5 5 6 6 6 7 8 7 4 4 7 9 7 6 5 4 4
8 8 9 8 7 6 5 4 3 2 1 1 1 1 1 2 2 2 2 3 3 3 3 3 4 5 6 7 7 7 8 8 8 7 4 5 8 9 7 7 6 6 5
7 6 6 6 6 5 4 3 3 2 1 1 2 2 2 3 4 4 4 4 4 5 4 5 5 6 7 8 9 9 9 10 10 7 6 5 9 9 8 8 7 7 6
6 5 5 5 5 4 3 2 2 1 1 2 2 3 3 4 5 5 6 5 5 6 6 6 6 7 8 9 10 11 11 11 11 10 7 5 9 10 9 9 9 8 8
5 4 4 4 4 3 2 1 1 1 1 2 2 3 4 4 5 5 6 6 7 7 8 8 8 8 9 10 12 13 12 10 10 9 7 8 10 11 11 10 10 10 9
3 3 4 3 3 3 3 2 2 2 2 2 3 3 3 4 4 4 4 7 8 9 9 10 10 10 9 9 11 13 11 12 11 8 9 11 11 12 12 12 11 11 10
4 4 4 3 4 4 3 2 2 2 2 3 3 4 5 4 3 3 3 3 6 7 7 8 9 8 8 8 7 9 11 11 9 8 9 12 13 13 13 13 13 12 12
4 4 4 3 3 4 4 3 3 2 2 3 4 4 4 3 2 2 2 3 3 4 4 4 5 7 8 8 7 7 9 8 8 8 9 12 13 14 14 14 14 14 13
4 4 3 3 3 3 3 2 3 3 2 3 4 4 4 3 2 2 2 3 3 4 3 3 4 4 5 5 6 6 6 6 7 8 8 12 13 14 14 15 15 14 14
3 3 3 3 3 3 2 2 2 3 3 4 4 5 5 4 3 3 3 3 4 4 4 4 3 4 4 4 4 5 5 5 6 7 7 9 13 14 14 15 15 15 15
3 3 2 2 3 3 3 3 3 4 4 3 4 6 6 5 5 4 3 3 4 6 6 4 4 3 4 4 5 5 4 5 5 5 6 6 8 12 14 14 14 15 15
3 2 2 2 3 3 2 2 2 3 3 3 4 6 7 7 7 5 3 3 4 5 4 3 3 3 4 4 4 4 4 4 5 5 5 5 6 8 11 14 14 15 15
3 2 2 2 2 3 2 2 2 3 3 3 4 5 7 8 8 6 3 4 5 4 3 3 3 3 4 4 4 4 4 4 5 5 4 4 5 6 7 11 13 14 14
3 2 2 2 2 2 2 2 2 2 3 3 4 5 7 7 8 7 4 5 5 3 3 3 4 4 3 4 5 5 5 5 4 4 5 4 3 4 4 5 7 8 11
3 1 1 2 2 2 2 2 2 2 3 3 3 5 7 8 8 6 5 5 4 3 3 4 3 4 3 3 3 4 5 5 4 4 3 3 3 2 2 3 3 4 6
2 1 1 2 2 2 2 1 1 2 2 2 2 4 6 7 7 6 5 4 4 3 4 4 3 3 3 2 2 3 4 4 3 4 3 3 3 2 3 3 3 3 3
3 2 1 2 2 2 2 1 2 2 2 2 3 3 4 5 6 6 6 5 4 4 3 3 3 3 3 3 2 2 2 3 3 3 3 3 3 3 3 3 3 3 4
3 2 1 1 1 1 1 1 1 1 2 2 2 2 3 5 5 6 6 5 4 4 4 4 4 3 3 3 3 3 3 3 3 4 3 3 4 4 4 4 4 4 3
4 3 1 0 0 1 1 1 1 1 1 2 2 2 3 3 4 5 5 5 4 4 4 4 4 4 3 3 3 3 4 4 4 4 6 4 3 3 4 4 4 3 3
4 3 2 1 1 0 0 1 1 1 2 2 3 3 3 2 3 4 5 4 4 3 4 4 4 4 4 4 3 3 3 3 3 4 5 5 5 4 4 4 3 3 2
Wind_Direction
106 108 109 103 99 98 96 92 92 92 94 97 96 93 94 98 99 97 94 94 103 114 120 116 108 102 97 94 93 89 84 86 87 87 86 85 84 83 78 76 83 85 84
112 112 108 102 99 98 98 94 90 89 90 91 95 95 93 94 104 108 104 103 107 112 121 123 118 111 105 106 105 102 101 104 107 110 110 102 95 90 82 72 76 91 89
106 108 107 102 100 97 95 94 92 92 90 89 89 91 91 90 90 92 112 124 126 125 124 128 129 128 124 120 118 116 119 132 148 159 161 141 121 107 97 87 88 95 92
102 106 105 103 101 98 96 93 92 93 94 90 87 83 80 79 79 87 84 111 160 152 142 137 139 143 145 143 141 139 152 187 211 228 214 168 140 127 118 107 103 102 98
98 102 104 104 101 100 96 93 89 87 89 88 85 83 75 70 59 56 59 66 103 161 171 169 168 166 163 165 167 172 196 227 239 249 248 136 131 140 138 130 120 115 110
101 100 104 105 101 100 99 93 88 83 80 85 81 78 74 58 22 10 11 26 82 192 194 202 198 192 190 189 192 198 215 235 248 250 239 163 136 148 151 150 146 141 134
99 98 106 105 105 102 98 98 92 84 75 76 76 315 298 267 282 295 300 291 270 241 226 222 221 214 210 212 213 217 226 240 250 257 240 161 147 157 162 169 172 174 169
100 103 108 106 107 106 100 101 92 71 53 11 296 273 266 265 264 261 261 253 250 253 247 239 235 232 224 220 222 228 232 240 252 252 235 170 162 166 176 186 191 195 195
88 93 99 104 101 99 98 103 101 91 52 315 292 272 263 265 258 255 251 247 246 246 249 249 245 239 234 229 227 231 236 241 259 265 248 185 174 179 191 198 205 207 209
81 82 78 79 80 77 80 109 106 134 225 259 266 261 259 258 257 251 246 245 244 246 248 251 253 246 242 236 232 234 237 243 249 255 252 206 185 193 204 209 214 214 215
78 74 70 60 60 51 33 48 43 246 241 258 267 255 254 259 256 252 240 242 248 249 248 249 251 250 246 241 237 235 235 241 240 239 236 218 203 206 211 214 216 220 221
76 70 65 47 38 31 23 11 352 342 346 321 323 313 282 273 272 272 260 249 247 246 246 248 248 248 247 242 239 233 233 238 241 232 226 215 209 214 217 216 215 219 224
69 54 56 39 24 21 16 10 357 344 337 320 334 328 313 303 301 301 289 269 256 247 246 250 245 246 243 240 233 224 230 236 235 234 224 212 209 216 221 220 220 220 223
67 52 50 40 34 23 14 1 355 4 355 342 336 324 330 334 330 321 312 287 275 266 260 257 254 250 250 248 244 232 231 232 232 231 223 212 211 217 223 225 226 224 225
65 49 40 35 38 25 16 352 7 5 354 332 331 330 341 340 320 330 318 314 296 288 280 274 273 272 267 261 258 254 248 236 237 237 225 213 213 215 222 228 230 229 229
68 50 33 32 41 25 19 10 6 1 346 333 341 340 343 335 331 328 316 314 311 308 293 277 280 281 278 278 273 275 271 260 249 241 228 218 213 214 221 228 231 232 233
73 48 26 21 42 30 17 6 355 346 348 352 346 338 343 336 331 326 307 307 317 312 312 313 303 303 291 285 281 281 279 275 272 257 244 226 215 216 218 226 234 237 236
86 58 27 22 28 24 19 0 340 341 350 352 348 351 349 342 339 332 317 306 317 322 325 311 302 305 297 293 290 286 282 278 269 264 255 241 223 216 219 223 229 235 238
88 70 34 36 37 26 12 350 336 339 351 351 357 2 351 347 345 341 331 326 328 322 307 303 308 299 293 294 290 286 286 282 277 273 260 250 242 229 220 222 226 231 236
93 79 52 34 37 28 14 5 356 357 356 2 4 359 353 349 348 344 335 332 332 317 312 309 299 297 295 296 298 294 288 282 280 274 266 258 253 250 236 223 222 229 233
106 97 75 42 23 34 28 15 3 356 346 347 357 359 357 350 348 344 333 327 325 315 311 309 305 306 306 311 303 299 281 265 261 262 268 279 281 287 278 244 224 225 232
126 105 72 58 28 28 32 1 326 328 324 325 352 0 354 349 347 340 335 327 324 317 320 317 316 309 308 316 292 292 296 291 278 269 254 253 267 284 280 274 252 227 241
127 112 59 47 21 18 24 6 356 350 332 355 355 350 346 345 345 339 335 333 325 323 311 312 307 298 295 293 280 263 274 275 308 280 272 259 263 262 269 280 273 268 253
133 115 79 47 21 2 7 358 336 333 328 324 332 332 343 351 346 341 337 335 329 324 319 313 317 302 289 286 293 284 269 273 278 292 289 289 284 268 265 267 262 265 260
134 130 137 171 298 347 360 344 324 327 315 316 327 332 339 341 342 341 341 340 332 327 324 321 319 313 299 282 279 286 284 290 272 266 281 287 286 272 267 263 257 257 263
139 140 163 198 231 263 326 331 321 308 314 322 325 325 327 330 335 340 338 336 331 326 320 312 312 315 307 296 289 283 277 270 272 268 271 281 283 278 276 264 253 235 258
Height
1521 1521 1523 1524 1526 1527 1528 1529 1531 1532 1533 1534 1534 1535 1536 1536 1537 1538 1538 1539 1539 1540 1540 1541 1541 1541 1542 1542 1542 1543 1543 1543 1544 1544 1544 1544 1544 1545 1545 1545 1545 1545 1545
1520 1521 1522 1524 1526 1527 1529 1530 1531 1532 1533 1534 1535 1535 1536 1537 1537 1538 1538 1539 1540 1540 1541 1541 1541 1542 1542 1543 1543 1543 1544 1544 1544 1544 1545 1545 1545 1545 1545 1546 1546 1546 1546
1520 1521 1522 1524 1525 1527 1529 1530 1531 1532 1533 1534 1535 1535 1536 1537 1537 1538 1539 1539 1540 1540 1541 1541 1541 1542 1542 1543 1543 1544 1544 1544 1545 1545 1545 1545 1546 1546 1546 1546 1546 1546 1546
1519 1520 1522 1524 1525 1527 1528 1530 1531 1532 1533 1534 1534 1535 1536 1536 1537 1538 1538 1539 1539 1540 1540 1541 1541 1542 1542 1543 1543 1544 1544 1544 1545 1545 1546 1546 1546 1546 1546 1546 1546 1547 1547
1519 1520 1522 1523 1525 1526 1528 1529 1530 1531 1532 1533 1534 1534 1535 1536 1536 1537 1538 1538 1539 1539 1540 1540 1541 1541 1542 1542 1543 1543 1544 1544 1545 1545 1546 1546 1546 1546 1546 1546 1547 1547 1547
1519 1520 1521 1523 1524 1526 1527 1528 1529 1530 1531 1532 1533 1534 1534 1535 1535 1536 1537 1537 1538 1538 1539 1540 1540 1541 1541 1542 1542 1543 1543 1544 1544 1545 1546 1546 1546 1546 1546 1546 1546 1546 1547
1519 1520 1521 1522 1524 1525 1526 1527 1528 1529 1530 1531 1532 1532 1533 1534 1534 1535 1535 1536 1537 1537 1538 1538 1539 1540 1540 1541 1541 1542 1542 1543 1543 1544 1545 1545 1545 1545 1546 1546 1546 1546 1546
1519 1519 1521 1522 1523 1524 1525 1526 1527 1528 1529 1529 1530 1531 1531 1532 1533 1533 1534 1534 1535 1536 1536 1537 1537 1538 1539 1539 1540 1541 1541 1542 1542 1543 1544 1544 1544 1544 1544 1545 1545 1545 1545
1518 1519 1520 1521 1522 1523 1524 1525 1526 1526 1527 1528 1529 1529 1530 1530 1531 1531 1532 1532 1533 1534 1534 1535 1536 1536 1537 1537 1538 1539 1539 1540 1541 1541 1542 1542 1543 1543 1543 1543 1544 1544 1544
1518 1519 1519 1520 1521 1522 1523 1524 1524 1525 1525 1526 1527 1527 1528 1528 1529 1529 1530 1530 1531 1531 1532 1533 1533 1534 1534 1535 1536 1536 1537 1538 1539 1539 1540 1540 1541 1541 1541 1542 1542 1542 1543
1517 1518 1519 1519 1520 1521 1521 1522 1523 1523 1524 1524 1524 1525 1526 1526 1526 1527 1527 1528 1528 1529 1529 1530 1531 1531 1532 1532 1533 1534 1535 1535 1536 1537 1537 1538 1538 1539 1539 1539 1540 1540 1541
1517 1517 1517 1518 1519 1519 1520 1520 1521 1521 1522 1522 1522 1523 1523 1524 1524 1524 1525 1525 1526 1526 1526 1527 1527 1528 1528 1529 1530 1530 1531 1532 1533 1533 1534 1535 1535 1536 1536 1537 1537 1538 1538
1515 1516 1516 1517 1517 1517 1518 1518 1519 1519 1520 1520 1520 1521 1521 1521 1521 1522 1522 1522 1523 1523 1524 1524 1524 1525 1525 1525 1526 1527 1528 1528 1529 1530 1531 1531 1532 1533 1533 1534 1534 1535 1535
1514 1515 1515 1515 1515 1516 1516 1516 1516 1517 1517 1518 1518 1519 1519 1519 1519 1519 1519 1520 1520 1520 1520 1521 1521 1521 1522 1522 1523 1523 1524 1525 1526 1526 1527 1528 1528 1529 1530 1530 1531 1532 1532
1513 1513 1513 1514 1514 1514 1514 1514 1514 1515 1515 1516 1516 1516 1516 1516 1516 1517 1517 1517 1517 1517 1517 1517 1518 1518 1518 1519 1519 1520 1520 1521 1521 1522 1523 1524 1524 1525 1526 1526 1527 1528 1528
1511 1512 1512 1512 1512 1512 1512 1512 1512 1512 1513 1513 1514 1514 1514 1514 1514 1514 1514 1514 1514 1514 1514 1514 1514 1514 1515 1515 1515 1516 1516 1517 1517 1518 1519 1519 1520 1521 1521 1522 1523 1523 1524
1510 1510 1510 1511 1511 1510 1510 1510 1510 1510 1511 1511 1511 1512 1512 1511 1511 1511 1511 1511 1511 1511 1511 1511 1511 1511 1511 1511 1511 1511 1512 1512 1513 1513 1514 1515 1515 1516 1516 1517 1518 1519 1520
1509 1509 1509 1509 1509 1509 1508 1508 1508 1509 1509 1509 1509 1509 1509 1509 1509 1508 1508 1508 1508 1508 1508 1508 1507 1507 1507 1507 1506 1507 1507 1507 1508 1508 1509 1510 1510 1510 1511 1512 1513 1514 1514
1507 1508 1507 1507 1507 1507 1507 1507 1507 1507 1507 1507 1507 1506 1506 1506 1506 1505 1505 1505 1505 1505 1504 1504 1504 1503 1503 1503 1502 1502 1501 1502 1502 1503 1504 1504 1505 1505 1506 1507 1507 1508 1509
1506 1506 1506 1506 1505 1505 1505 1505 1505 1505 1504 1504 1504 1504 1504 1503 1502 1502 1502 1502 1501 1501 1501 1500 1500 1500 1499 1499 1498 1497 1496 1496 1496 1497 1498 1499 1500 1500 1501 1501 1502 1503 1504
1504 1504 1504 1504 1503 1503 1502 1503 1502 1502 1502 1502 1502 1501 1501 1500 1500 1499 1499 1498 1498 1498 1497 1497 1496 1496 1495 1495 1494 1492 1492 1492 1491 1492 1493 1494 1494 1495 1495 1496 1496 1497 1498
1502 1502 1502 1502 1501 1501 1501 1501 1501 1500 1500 1500 1500 1499 1499 1498 1497 1496 1495 1495 1494 1494 1494 1493 1493 1492 1491 1492 1492 1490 1488 1488 1487 1488 1488 1488 1489 1490 1490 1491 1491 1491 1492
1500 1500 1500 1500 1500 1500 1500 1499 1499 1498 1498 1498 1497 1496 1496 1495 1494 1493 1492 1491 1491 1490 1490 1490 1489 1489 1488 1488 1489 1489 1487 1485 1484 1483 1483 1484 1484 1484 1485 1485 1485 1485 1486
1498 1499 1499 1499 1499 1498 1498 1497 1497 1496 1496 1495 1495 1494 1493 1492 1491 1490 1489 1488 1487 1487 1486 1486 1486 1485 1485 1484 1484 1485 1485 1484 1483 1480 1479 1479 1479 1479 1479 1480 1480 1480 1481
1497 1497 1497 1497 1497 1496 1496 1496 1495 1494 1494 1493 1492 1491 1490 1489 1488 1487 1486 1485 1484 1483 1482 1482 1482 1481 1481 1480 1480 1480 1480 1480 1479 1478 1475 1474 1474 1474 1474 1474 1474 1475 1475
1495 1495 1495 1495 1495 1494 1494 1494 1493 1493 1492 1491 1490 1488 1487 1486 1485 1484 1483 1482 1481 1480 1479 1478 1478 1477 1477 1476 1476 1476 1476 1475 1475 1474 1472 1470 1469 1469 1469 1469 1469 1469 1470